Time,TemperatureF,DewpointF,PressureIn,WindDirection,WindDirectionDegrees,WindSpeedMPH,WindSpeedGustMPH,Humidity,HourlyPrecipIn,Conditions,Clouds,dailyrainin,SolarRadiationWatts/m^2,SoftwareType,DateUTC
2013-03-23 00:02:00,41.9,32.5,29.61,SE,140,8.0,22.0,69,0.00,,,0.00,0.0,meteohub,2013-03-23 05:02:00,
2013-03-23 00:07:00,41.7,32.4,29.60,SE,133,13.0,22.0,69,0.00,,,0.00,0.0,meteohub,2013-03-23 05:07:00,
2013-03-23 00:12:00,41.5,32.5,29.60,SE,128,10.0,23.0,70,0.00,,,0.00,0.0,meteohub,2013-03-23 05:12:00,
2013-03-23 00:17:00,41.4,32.4,29.60,SE,125,13.0,23.0,70,0.00,,,0.00,0.0,meteohub,2013-03-23 05:17:00,
2013-03-23 00:22:00,41.2,32.5,29.60,SE,133,17.0,23.0,71,0.00,,,0.00,0.0,meteohub,2013-03-23 05:22:00,
2013-03-23 00:27:00,40.8,32.2,29.59,SE,130,16.0,23.0,71,0.00,,,0.00,0.0,meteohub,2013-03-23 05:27:00,
2013-03-23 00:32:00,40.6,32.4,29.59,SE,132,15.0,21.0,72,0.00,,,0.00,0.0,meteohub,2013-03-23 05:32:00,
2013-03-23 00:37:00,40.5,32.2,29.59,SE,125,13.0,22.0,72,0.00,,,0.00,0.0,meteohub,2013-03-23 05:37:00,
2013-03-23 00:42:00,40.5,32.5,29.60,SE,136,10.0,22.0,73,0.00,,,0.00,0.0,meteohub,2013-03-23 05:42:00,
2013-03-23 00:47:00,40.3,32.7,29.59,SE,129,16.0,22.0,74,0.00,,,0.00,0.0,meteohub,2013-03-23 05:47:00,
2013-03-23 00:52:00,39.9,32.4,29.59,SE,130,13.0,22.0,74,0.00,,,0.00,0.0,meteohub,2013-03-23 05:52:00,
2013-03-23 00:57:00,39.7,32.5,29.59,ESE,122,18.0,19.0,75,0.00,,,0.00,0.0,meteohub,2013-03-23 05:57:00,
2013-03-23 01:02:00,39.7,32.5,29.59,SE,130,15.0,21.0,75,0.00,,,0.00,0.0,meteohub,2013-03-23 06:02:00,
2013-03-23 01:07:00,39.6,32.5,29.59,SE,128,14.0,21.0,76,0.00,,,0.00,0.0,meteohub,2013-03-23 06:07:00,
2013-03-23 01:12:00,39.4,32.5,29.59,SE,134,21.0,21.0,76,0.00,,,0.00,0.0,meteohub,2013-03-23 06:12:00,
2013-03-23 01:17:00,39.2,32.5,29.59,SE,129,11.0,23.0,77,0.00,,,0.00,0.0,meteohub,2013-03-23 06:17:00,
2013-03-23 01:22:00,39.0,32.4,29.58,ESE,123,15.0,23.0,77,0.00,,,0.00,0.0,meteohub,2013-03-23 06:22:00,
2013-03-23 01:27:00,39.0,32.4,29.58,SE,130,17.0,22.0,77,0.00,,,0.00,0.0,meteohub,2013-03-23 06:27:00,
2013-03-23 01:32:00,38.8,32.5,29.58,SE,125,17.0,20.0,78,0.00,,,0.00,0.0,meteohub,2013-03-23 06:32:00,
2013-03-23 01:37:00,38.8,32.5,29.58,SE,126,14.0,20.0,78,0.00,,,0.00,0.0,meteohub,2013-03-23 06:37:00,
2013-03-23 01:42:00,38.7,32.4,29.59,SE,125,14.0,20.0,78,0.00,,,0.00,0.0,meteohub,2013-03-23 06:42:00,
2013-03-23 01:47:00,38.7,32.7,29.59,SE,136,6.0,20.0,79,0.00,,,0.00,0.0,meteohub,2013-03-23 06:47:00,
2013-03-23 01:52:00,38.5,32.5,29.59,SE,134,11.0,20.0,79,0.00,,,0.00,0.0,meteohub,2013-03-23 06:52:00,
2013-03-23 01:58:00,38.3,32.7,29.59,SE,132,14.0,20.0,80,0.00,,,0.00,0.0,meteohub,2013-03-23 06:58:00,
2013-03-23 02:03:00,38.1,32.5,29.59,SE,136,16.0,22.0,80,0.00,,,0.00,0.0,meteohub,2013-03-23 07:03:00,
2013-03-23 02:08:00,38.1,32.5,29.58,SE,133,12.0,22.0,80,0.00,,,0.00,0.0,meteohub,2013-03-23 07:08:00,
2013-03-23 02:13:00,37.9,32.4,29.58,SE,132,11.0,20.0,80,0.00,,,0.00,0.0,meteohub,2013-03-23 07:13:00,
2013-03-23 02:18:00,37.9,32.4,29.58,SE,129,15.0,20.0,80,0.00,,,0.00,0.0,meteohub,2013-03-23 07:18:00,
2013-03-23 02:23:00,37.8,32.5,29.58,SE,136,9.0,20.0,81,0.00,,,0.00,0.0,meteohub,2013-03-23 07:23:00,
2013-03-23 02:28:00,37.6,32.4,29.58,SE,140,10.0,20.0,81,0.00,,,0.00,0.0,meteohub,2013-03-23 07:28:00,
2013-03-23 02:33:00,37.4,32.2,29.57,SE,143,8.0,18.0,81,0.00,,,0.00,0.0,meteohub,2013-03-23 07:33:00,
2013-03-23 02:38:00,37.2,32.0,29.57,SE,133,11.0,17.0,81,0.00,,,0.00,0.0,meteohub,2013-03-23 07:38:00,
2013-03-23 02:43:00,37.0,32.0,29.57,SE,139,7.0,17.0,82,0.00,,,0.00,0.0,meteohub,2013-03-23 07:43:00,
2013-03-23 02:48:00,36.9,31.8,29.56,SE,128,14.0,17.0,82,0.00,,,0.00,0.0,meteohub,2013-03-23 07:48:00,
2013-03-23 02:53:00,36.9,31.8,29.57,SE,140,11.0,17.0,82,0.00,,,0.00,0.0,meteohub,2013-03-23 07:53:00,
2013-03-23 02:58:00,36.7,31.6,29.57,SE,132,9.0,16.0,82,0.00,,,0.00,0.0,meteohub,2013-03-23 07:58:00,
2013-03-23 03:03:00,36.5,31.8,29.57,SE,129,11.0,16.0,83,0.00,,,0.00,0.0,meteohub,2013-03-23 08:03:00,
2013-03-23 03:08:00,36.3,31.6,29.57,ESE,123,16.0,16.0,83,0.00,,,0.00,0.0,meteohub,2013-03-23 08:08:00,
2013-03-23 03:13:00,36.3,31.6,29.57,ESE,122,13.0,17.0,83,0.00,,,0.00,0.0,meteohub,2013-03-23 08:13:00,
2013-03-23 03:19:00,36.3,31.6,29.57,SE,128,12.0,17.0,83,0.00,,,0.00,0.0,meteohub,2013-03-23 08:19:00,
2013-03-23 03:24:00,36.1,31.8,29.56,SE,128,11.0,17.0,84,0.00,,,0.00,0.0,meteohub,2013-03-23 08:24:00,
2013-03-23 03:29:00,36.0,31.6,29.56,SE,132,8.0,17.0,84,0.00,,,0.00,0.0,meteohub,2013-03-23 08:29:00,
2013-03-23 03:34:00,36.0,31.6,29.56,SE,130,10.0,17.0,84,0.00,,,0.00,0.0,meteohub,2013-03-23 08:34:00,
2013-03-23 03:39:00,35.8,31.5,29.55,SE,130,10.0,17.0,84,0.00,,,0.00,0.0,meteohub,2013-03-23 08:39:00,
2013-03-23 03:44:00,35.8,31.6,29.55,SE,128,12.0,17.0,85,0.00,,,0.00,0.0,meteohub,2013-03-23 08:44:00,
2013-03-23 03:49:00,35.6,31.5,29.55,SE,130,10.0,17.0,85,0.00,,,0.00,0.0,meteohub,2013-03-23 08:49:00,
2013-03-23 03:54:00,35.4,31.3,29.56,SE,126,11.0,16.0,85,0.00,,,0.00,0.0,meteohub,2013-03-23 08:54:00,
2013-03-23 03:59:00,35.4,31.6,29.55,ESE,120,13.0,16.0,86,0.00,,,0.00,0.0,meteohub,2013-03-23 08:59:00,
2013-03-23 04:04:00,35.2,31.5,29.55,SE,125,16.0,16.0,86,0.00,,,0.00,0.0,meteohub,2013-03-23 09:04:00,
2013-03-23 04:09:00,35.2,31.5,29.55,SE,129,11.0,18.0,86,0.00,,,0.00,0.0,meteohub,2013-03-23 09:09:00,
2013-03-23 04:14:00,35.2,31.8,29.55,ESE,122,15.0,18.0,87,0.00,,,0.00,0.0,meteohub,2013-03-23 09:14:00,
2013-03-23 04:19:00,35.6,32.2,29.55,SE,132,13.0,18.0,87,0.00,,,0.00,0.0,meteohub,2013-03-23 09:19:00,
2013-03-23 04:24:00,35.8,32.4,29.54,SE,131,19.0,19.0,87,0.00,,,0.00,0.0,meteohub,2013-03-23 09:24:00,
2013-03-23 04:29:00,36.0,32.5,29.54,SE,129,15.0,21.0,87,0.00,,,0.00,0.0,meteohub,2013-03-23 09:29:00,
2013-03-23 04:34:00,36.0,32.5,29.53,SE,127,12.0,21.0,87,0.00,,,0.00,0.0,meteohub,2013-03-23 09:34:00,
2013-03-23 04:39:00,36.1,32.7,29.54,SE,124,15.0,24.0,87,0.00,,,0.00,0.0,meteohub,2013-03-23 09:39:00,
2013-03-23 04:44:00,36.1,32.7,29.60,East,94,7.0,24.0,87,0.00,,,0.00,0.0,meteohub,2013-03-23 09:44:00,
2013-03-23 04:49:00,36.3,32.9,29.64,ENE,69,10.0,24.0,87,0.00,,,0.00,0.0,meteohub,2013-03-23 09:49:00,
2013-03-23 04:55:00,36.3,32.9,29.58,SE,130,11.0,24.0,87,0.00,,,0.00,0.0,meteohub,2013-03-23 09:55:00,
2013-03-23 05:00:00,36.3,32.9,29.62,SE,126,3.0,20.0,87,0.00,,,0.00,0.0,meteohub,2013-03-23 10:00:00,
2013-03-23 05:05:00,36.3,32.9,29.62,SE,126,3.0,20.0,87,0.00,,,0.00,0.0,meteohub,2013-03-23 10:05:00,
2013-03-23 05:10:00,36.5,33.1,29.65,SE,126,0.0,20.0,87,0.00,,,0.00,0.0,meteohub,2013-03-23 10:10:00,
2013-03-23 05:15:00,36.5,33.1,29.63,SE,129,3.0,14.0,87,0.00,,,0.00,0.0,meteohub,2013-03-23 10:15:00,
2013-03-23 05:20:00,36.7,33.3,29.64,ESE,103,5.0,11.0,87,0.00,,,0.00,0.0,meteohub,2013-03-23 10:20:00,
2013-03-23 05:25:00,36.7,33.3,29.63,ESE,107,8.0,11.0,87,0.00,,,0.00,0.0,meteohub,2013-03-23 10:25:00,
2013-03-23 05:30:00,36.5,33.1,29.62,ESE,107,7.0,11.0,87,0.00,,,0.00,0.0,meteohub,2013-03-23 10:30:00,
2013-03-23 05:35:00,36.7,33.3,29.64,East,96,8.0,10.0,87,0.00,,,0.00,0.0,meteohub,2013-03-23 10:35:00,
2013-03-23 05:40:00,36.7,32.9,29.63,East,100,3.0,10.0,86,0.00,,,0.00,0.0,meteohub,2013-03-23 10:40:00,
2013-03-23 05:45:00,36.5,32.7,29.61,ESE,119,13.0,13.0,86,0.00,,,0.00,0.0,meteohub,2013-03-23 10:45:00,
2013-03-23 05:50:00,36.5,33.1,29.63,East,87,6.0,13.0,87,0.00,,,0.00,0.0,meteohub,2013-03-23 10:50:00,
2013-03-23 05:55:00,36.5,32.7,29.61,ESE,103,8.0,13.0,86,0.00,,,0.00,0.0,meteohub,2013-03-23 10:55:00,
2013-03-23 06:00:00,36.5,33.1,29.62,East,98,8.0,13.0,87,0.00,,,0.00,0.0,meteohub,2013-03-23 11:00:00,
2013-03-23 06:06:00,36.3,32.5,29.61,ESE,109,9.0,13.0,86,0.00,,,0.00,0.0,meteohub,2013-03-23 11:06:00,
2013-03-23 06:11:00,36.3,32.5,29.62,East,101,10.0,13.0,86,0.00,,,0.00,0.0,meteohub,2013-03-23 11:11:00,
2013-03-23 06:16:00,36.5,32.7,29.62,ESE,113,10.0,13.0,86,0.00,,,0.00,0.0,meteohub,2013-03-23 11:16:00,
2013-03-23 06:21:00,36.3,32.9,29.63,ESE,108,5.0,13.0,87,0.00,,,0.00,0.0,meteohub,2013-03-23 11:21:00,
2013-03-23 06:26:00,36.3,32.9,29.63,ESE,110,8.0,13.0,87,0.00,,,0.00,0.0,meteohub,2013-03-23 11:26:00,
2013-03-23 06:31:00,36.3,32.9,29.63,ESE,108,9.0,13.0,87,0.00,,,0.00,0.0,meteohub,2013-03-23 11:31:00,
2013-03-23 06:36:00,36.3,32.9,29.62,ESE,103,11.0,11.0,87,0.00,,,0.00,0.0,meteohub,2013-03-23 11:36:00,
2013-03-23 06:41:00,36.3,32.9,29.63,ESE,106,10.0,13.0,87,0.00,,,0.00,0.0,meteohub,2013-03-23 11:41:00,
2013-03-23 06:46:00,36.3,32.9,29.62,ESE,106,5.0,13.0,87,0.00,,,0.00,0.0,meteohub,2013-03-23 11:46:00,
2013-03-23 06:51:00,36.3,32.9,29.63,East,89,8.0,13.0,87,0.00,,,0.00,0.0,meteohub,2013-03-23 11:51:00,
2013-03-23 06:56:00,36.3,32.9,29.64,ENE,74,8.0,13.0,87,0.00,,,0.00,0.0,meteohub,2013-03-23 11:56:00,
2013-03-23 07:02:00,36.1,32.7,29.63,East,81,9.0,10.0,87,0.00,,,0.00,0.0,meteohub,2013-03-23 12:02:00,
2013-03-23 07:07:00,36.1,32.7,29.63,East,88,8.0,10.0,87,0.00,,,0.00,0.0,meteohub,2013-03-23 12:07:00,
2013-03-23 07:12:00,36.1,32.9,29.63,East,84,8.0,10.0,88,0.00,,,0.00,0.0,meteohub,2013-03-23 12:12:00,
2013-03-23 07:17:00,36.1,32.9,29.64,East,84,8.0,10.0,88,0.00,,,0.00,0.0,meteohub,2013-03-23 12:17:00,
2013-03-23 07:22:00,36.1,32.9,29.64,East,84,8.0,10.0,88,0.00,,,0.00,0.0,meteohub,2013-03-23 12:22:00,
2013-03-23 07:27:00,36.1,32.9,29.63,East,90,10.0,11.0,88,0.00,,,0.00,0.0,meteohub,2013-03-23 12:27:00,
2013-03-23 07:32:00,36.1,32.9,29.63,East,92,10.0,11.0,88,0.00,,,0.00,0.0,meteohub,2013-03-23 12:32:00,
2013-03-23 07:37:00,36.1,32.9,29.63,East,88,9.0,11.0,88,0.00,,,0.00,0.0,meteohub,2013-03-23 12:37:00,
2013-03-23 07:42:00,36.1,32.9,29.63,East,93,7.0,11.0,88,0.00,,,0.00,0.0,meteohub,2013-03-23 12:42:00,
2013-03-23 07:47:00,36.1,32.9,29.63,East,93,7.0,11.0,88,0.00,,,0.00,0.0,meteohub,2013-03-23 12:47:00,
2013-03-23 07:52:00,36.1,32.9,29.63,East,92,9.0,10.0,88,0.00,,,0.00,0.0,meteohub,2013-03-23 12:52:00,
2013-03-23 07:57:00,36.1,33.3,29.64,East,79,6.0,10.0,89,0.00,,,0.00,0.0,meteohub,2013-03-23 12:57:00,
2013-03-23 08:02:00,36.1,33.3,29.64,ENE,74,5.0,10.0,89,0.00,,,0.00,0.0,meteohub,2013-03-23 13:02:00,
2013-03-23 08:07:00,36.1,33.3,29.64,ENE,74,4.0,10.0,89,0.00,,,0.00,0.0,meteohub,2013-03-23 13:07:00,
2013-03-23 08:12:00,36.1,33.3,29.64,ENE,65,7.0,8.0,89,0.00,,,0.00,0.0,meteohub,2013-03-23 13:12:00,
2013-03-23 08:18:00,36.1,33.3,29.64,ENE,62,5.0,9.0,89,0.00,,,0.00,5.0,meteohub,2013-03-23 13:18:00,
2013-03-23 08:23:00,36.1,33.3,29.65,ENE,61,3.0,9.0,89,0.00,,,0.00,7.0,meteohub,2013-03-23 13:23:00,
2013-03-23 08:28:00,36.1,33.4,29.65,ENE,61,3.0,9.0,90,0.00,,,0.00,7.0,meteohub,2013-03-23 13:28:00,
2013-03-23 08:33:00,36.1,33.4,29.65,ENE,59,3.0,8.0,90,0.00,,,0.00,9.0,meteohub,2013-03-23 13:33:00,
2013-03-23 08:38:00,36.1,33.8,29.66,ENE,59,3.0,5.0,91,0.00,,,0.00,12.0,meteohub,2013-03-23 13:38:00,
2013-03-23 08:43:00,36.1,33.8,29.66,ENE,61,4.0,5.0,91,0.00,,,0.00,16.0,meteohub,2013-03-23 13:43:00,
2013-03-23 08:48:00,36.1,33.8,29.66,ENE,62,4.0,5.0,91,0.00,,,0.00,16.0,meteohub,2013-03-23 13:48:00,
2013-03-23 08:53:00,36.1,33.8,29.66,ENE,63,5.0,5.0,91,0.00,,,0.00,25.0,meteohub,2013-03-23 13:53:00,
2013-03-23 08:58:00,36.1,33.8,29.65,ENE,74,4.0,7.0,91,0.00,,,0.00,39.0,meteohub,2013-03-23 13:58:00,
2013-03-23 09:03:00,36.3,34.2,29.66,ENE,78,5.0,7.0,92,0.00,,,0.00,32.0,meteohub,2013-03-23 14:03:00,
2013-03-23 09:08:00,36.3,34.2,29.67,East,84,7.0,8.0,92,0.00,,,0.00,33.0,meteohub,2013-03-23 14:08:00,
2013-03-23 09:13:00,36.3,34.0,29.67,East,86,8.0,9.0,91,0.00,,,0.00,47.0,meteohub,2013-03-23 14:13:00,
2013-03-23 09:19:00,36.5,34.3,29.67,East,97,7.0,9.0,92,0.00,,,0.00,54.0,meteohub,2013-03-23 14:19:00,
2013-03-23 09:24:00,36.7,34.5,29.66,ESE,103,9.0,9.0,92,0.00,,,0.00,86.0,meteohub,2013-03-23 14:24:00,
2013-03-23 09:29:00,37.0,34.9,29.66,East,101,11.0,11.0,92,0.00,,,0.00,118.0,meteohub,2013-03-23 14:29:00,
2013-03-23 09:34:00,37.2,34.9,29.66,East,96,10.0,11.0,91,0.00,,,0.00,121.0,meteohub,2013-03-23 14:34:00,
2013-03-23 09:39:00,37.6,35.2,29.66,ESE,103,9.0,13.0,91,0.00,,,0.00,127.0,meteohub,2013-03-23 14:39:00,
2013-03-23 09:44:00,37.6,35.2,29.66,East,94,11.0,14.0,91,0.00,,,0.00,111.0,meteohub,2013-03-23 14:44:00,
2013-03-23 09:49:00,37.6,34.9,29.65,East,101,6.0,14.0,90,0.00,,,0.00,127.0,meteohub,2013-03-23 14:49:00,
2013-03-23 09:54:00,37.8,35.1,29.65,East,89,11.0,14.0,90,0.00,,,0.00,104.0,meteohub,2013-03-23 14:54:00,
2013-03-23 09:59:00,37.8,35.1,29.65,East,90,9.0,13.0,90,0.00,,,0.00,125.0,meteohub,2013-03-23 14:59:00,
2013-03-23 10:04:00,37.8,35.1,29.65,East,96,8.0,13.0,90,0.00,,,0.00,163.0,meteohub,2013-03-23 15:04:00,
2013-03-23 10:09:00,37.9,35.2,29.65,East,94,6.0,13.0,90,0.00,,,0.00,211.0,meteohub,2013-03-23 15:09:00,
2013-03-23 10:14:00,38.7,35.8,29.65,East,94,9.0,13.0,89,0.00,,,0.00,221.0,meteohub,2013-03-23 15:14:00,
2013-03-23 10:20:00,38.8,35.6,29.64,East,101,6.0,11.0,88,0.00,,,0.00,167.0,meteohub,2013-03-23 15:20:00,
2013-03-23 10:25:00,38.8,35.2,29.64,ESE,106,8.0,11.0,87,0.00,,,0.00,304.0,meteohub,2013-03-23 15:25:00,
2013-03-23 10:30:00,39.2,35.6,29.65,East,84,6.0,11.0,87,0.00,,,0.00,169.0,meteohub,2013-03-23 15:30:00,
2013-03-23 10:35:00,39.2,35.4,29.65,ENE,71,10.0,11.0,86,0.00,,,0.00,62.0,meteohub,2013-03-23 15:35:00,
2013-03-23 10:40:00,37.0,32.7,29.65,NE,55,17.0,17.0,84,0.00,,,0.00,37.0,meteohub,2013-03-23 15:40:00,
2013-03-23 10:45:00,35.1,31.6,29.65,ENE,59,19.0,23.0,87,0.00,,,0.00,49.0,meteohub,2013-03-23 15:45:00,
2013-03-23 14:56:00,33.3,31.5,29.65,NE,39,9.0,15.0,93,0.00,,,0.00,65.0,meteohub,2013-03-23 19:56:00,
2013-03-23 15:01:00,33.1,31.3,29.65,NE,36,11.0,15.0,93,0.00,,,0.00,56.0,meteohub,2013-03-23 20:01:00,
2013-03-23 15:06:00,32.9,31.1,29.64,NNE,24,11.0,15.0,93,0.00,,,0.00,53.0,meteohub,2013-03-23 20:06:00,
2013-03-23 15:12:00,32.7,30.9,29.64,NE,44,12.0,16.0,93,0.00,,,0.00,65.0,meteohub,2013-03-23 20:12:00,
2013-03-23 15:17:00,32.9,31.1,29.63,NE,38,16.0,17.0,93,0.00,,,0.00,74.0,meteohub,2013-03-23 20:17:00,
2013-03-23 15:22:00,32.7,30.9,29.63,NE,55,15.0,18.0,93,0.00,,,0.00,70.0,meteohub,2013-03-23 20:22:00,
2013-03-23 15:27:00,32.7,30.9,29.62,NE,45,16.0,18.0,93,0.00,,,0.00,86.0,meteohub,2013-03-23 20:27:00,
2013-03-23 15:32:00,32.7,30.9,29.61,NE,44,17.0,21.0,93,0.00,,,0.00,81.0,meteohub,2013-03-23 20:32:00,
2013-03-23 15:37:00,32.7,31.1,29.61,NE,45,18.0,21.0,94,0.00,,,0.00,77.0,meteohub,2013-03-23 20:37:00,
2013-03-23 15:42:00,32.7,31.1,29.61,ENE,61,18.0,21.0,94,0.00,,,0.00,72.0,meteohub,2013-03-23 20:42:00,
2013-03-23 15:47:00,32.7,31.1,29.61,ENE,57,16.0,22.0,94,0.00,,,0.00,54.0,meteohub,2013-03-23 20:47:00,
2013-03-23 15:52:00,32.5,30.9,29.61,NE,49,18.0,22.0,94,0.00,,,0.00,54.0,meteohub,2013-03-23 20:52:00,
2013-03-23 15:57:00,32.5,30.9,29.61,NE,51,23.0,23.0,94,0.00,,,0.00,69.0,meteohub,2013-03-23 20:57:00,
2013-03-23 16:02:00,32.7,31.1,29.61,NE,37,21.0,24.0,94,0.00,,,0.00,65.0,meteohub,2013-03-23 21:02:00,
2013-03-23 16:07:00,32.7,31.1,29.62,NE,48,16.0,24.0,94,0.00,,,0.00,46.0,meteohub,2013-03-23 21:07:00,
2013-03-23 16:12:00,32.7,31.1,29.61,ENE,61,17.0,24.0,94,0.00,,,0.00,62.0,meteohub,2013-03-23 21:12:00,
2013-03-23 16:17:00,32.7,31.1,29.60,NE,50,21.0,23.0,94,0.00,,,0.00,72.0,meteohub,2013-03-23 21:17:00,
2013-03-23 16:22:00,32.7,31.1,29.60,NE,49,22.0,26.0,94,0.00,,,0.00,49.0,meteohub,2013-03-23 21:22:00,
2013-03-23 16:27:00,32.7,31.1,29.60,NE,46,23.0,28.0,94,0.00,,,0.00,54.0,meteohub,2013-03-23 21:27:00,
2013-03-23 16:33:00,32.7,31.1,29.59,NE,34,23.0,28.0,94,0.00,,,0.00,81.0,meteohub,2013-03-23 21:33:00,
2013-03-23 16:38:00,32.5,30.7,29.59,NNE,32,21.0,28.0,93,0.00,,,0.00,47.0,meteohub,2013-03-23 21:38:00,
2013-03-23 16:43:00,32.2,30.6,29.60,NE,53,16.0,27.0,94,0.00,,,0.00,56.0,meteohub,2013-03-23 21:43:00,
2013-03-23 16:48:00,32.2,30.6,29.59,NE,54,24.0,27.0,94,0.00,,,0.00,98.0,meteohub,2013-03-23 21:48:00,
2013-03-23 16:53:00,31.8,30.4,29.60,NE,46,16.0,27.0,94,0.00,,,0.00,74.0,meteohub,2013-03-23 21:53:00,
2013-03-23 16:58:00,32.0,30.6,29.61,NE,49,21.0,29.0,94,0.00,,,0.00,49.0,meteohub,2013-03-23 21:58:00,
2013-03-23 17:03:00,31.6,30.2,29.62,NE,34,20.0,29.0,94,0.00,,,0.00,33.0,meteohub,2013-03-23 22:03:00,
2013-03-23 17:08:00,31.6,30.2,29.62,NNE,29,24.0,26.0,94,0.00,,,0.00,28.0,meteohub,2013-03-23 22:08:00,
2013-03-23 17:13:00,31.6,30.2,29.65,North,349,18.0,27.0,94,0.00,,,0.00,9.0,meteohub,2013-03-23 22:13:00,
2013-03-23 17:18:00,31.8,30.4,29.72,NNW,332,18.0,27.0,94,0.00,,,0.00,0.0,meteohub,2013-03-23 22:18:00,
2013-03-23 17:23:00,31.6,30.2,29.73,North,350,17.0,27.0,94,0.00,,,0.00,11.0,meteohub,2013-03-23 22:23:00,
2013-03-23 17:29:00,31.3,29.8,29.73,North,349,9.0,27.0,94,0.00,,,0.00,14.0,meteohub,2013-03-23 22:29:00,
2013-03-23 17:34:00,30.9,29.5,29.74,NNW,340,15.0,27.0,94,0.00,,,0.00,28.0,meteohub,2013-03-23 22:34:00,
2013-03-23 17:39:00,30.9,29.5,29.74,North,355,14.0,27.0,94,0.00,,,0.00,39.0,meteohub,2013-03-23 22:39:00,
2013-03-23 17:44:00,30.6,29.1,29.77,NNW,342,16.0,21.0,94,0.00,,,0.00,49.0,meteohub,2013-03-23 22:44:00,
2013-03-23 17:49:00,30.6,29.1,29.77,NNW,338,20.0,22.0,94,0.00,,,0.00,51.0,meteohub,2013-03-23 22:49:00,
2013-03-23 17:54:00,30.6,29.3,29.76,NNW,346,15.0,22.0,95,0.00,,,0.00,98.0,meteohub,2013-03-23 22:54:00,
2013-03-23 17:59:00,30.0,28.8,29.75,NNW,348,15.0,22.0,95,0.00,,,0.00,98.0,meteohub,2013-03-23 22:59:00,
2013-03-23 18:04:00,29.8,28.6,29.74,NNE,13,10.0,26.0,95,0.00,,,0.00,83.0,meteohub,2013-03-23 23:04:00,
2013-03-23 18:09:00,30.0,28.8,29.75,NNW,342,18.0,26.0,95,0.00,,,0.00,120.0,meteohub,2013-03-23 23:09:00,
2013-03-23 18:14:00,29.8,28.6,29.76,NNW,342,17.0,26.0,95,0.00,,,0.00,153.0,meteohub,2013-03-23 23:14:00,
2013-03-23 18:19:00,29.8,28.6,29.75,North,5,16.0,23.0,95,0.00,,,0.00,148.0,meteohub,2013-03-23 23:19:00,
2013-03-23 18:25:00,29.7,28.4,29.76,North,350,14.0,23.0,95,0.00,,,0.00,116.0,meteohub,2013-03-23 23:25:00,
2013-03-23 18:30:00,29.5,28.2,29.77,North,5,9.0,23.0,95,0.00,,,0.00,90.0,meteohub,2013-03-23 23:30:00,
2013-03-23 18:35:00,29.5,28.2,29.78,North,5,15.0,22.0,95,0.00,,,0.00,83.0,meteohub,2013-03-23 23:35:00,
2013-03-23 18:40:00,29.5,28.2,29.80,NNW,336,19.0,22.0,95,0.00,,,0.00,70.0,meteohub,2013-03-23 23:40:00,
2013-03-23 18:45:00,28.9,27.7,29.81,NNW,331,17.0,22.0,95,0.00,,,0.00,51.0,meteohub,2013-03-23 23:45:00,
2013-03-23 18:50:00,28.9,27.7,29.81,NNW,339,14.0,22.0,95,0.00,,,0.00,40.0,meteohub,2013-03-23 23:50:00,
2013-03-23 18:55:00,28.9,27.7,29.83,North,355,17.0,22.0,95,0.00,,,0.00,35.0,meteohub,2013-03-23 23:55:00,
2013-03-23 19:00:00,28.9,27.7,29.83,NNW,343,20.0,22.0,95,0.00,,,0.00,35.0,meteohub,2013-03-24 00:00:00,
2013-03-23 19:05:00,28.8,27.5,29.83,NNW,348,15.0,23.0,95,0.00,,,0.00,32.0,meteohub,2013-03-24 00:05:00,
2013-03-23 19:10:00,28.6,27.3,29.84,North,0,21.0,23.0,95,0.00,,,0.00,30.0,meteohub,2013-03-24 00:10:00,
2013-03-23 19:15:00,28.4,27.1,29.86,North,351,17.0,23.0,95,0.00,,,0.00,28.0,meteohub,2013-03-24 00:15:00,
2013-03-23 19:20:00,28.4,27.1,29.86,NNW,343,14.0,23.0,95,0.00,,,0.00,25.0,meteohub,2013-03-24 00:20:00,
2013-03-23 19:26:00,28.6,27.3,29.87,NNW,343,14.0,21.0,95,0.00,,,0.00,21.0,meteohub,2013-03-24 00:26:00,
2013-03-23 19:31:00,28.0,26.8,29.88,NNW,345,15.0,20.0,95,0.00,,,0.00,19.0,meteohub,2013-03-24 00:31:00,
2013-03-23 19:36:00,27.9,26.6,29.88,NNW,345,19.0,22.0,95,0.00,,,0.00,19.0,meteohub,2013-03-24 00:36:00,
2013-03-23 19:41:00,27.9,26.6,29.88,North,355,17.0,22.0,95,0.00,,,0.00,19.0,meteohub,2013-03-24 00:41:00,
2013-03-23 19:46:00,27.9,26.6,29.89,NNW,339,12.0,22.0,95,0.00,,,0.00,19.0,meteohub,2013-03-24 00:46:00,
2013-03-23 19:51:00,28.0,26.8,29.90,NNW,332,12.0,20.0,95,0.00,,,0.00,14.0,meteohub,2013-03-24 00:51:00,
2013-03-23 19:56:00,28.0,26.8,29.90,North,9,20.0,21.0,95,0.00,,,0.00,5.0,meteohub,2013-03-24 00:56:00,
2013-03-23 20:02:00,27.9,26.6,29.91,North,350,18.0,22.0,95,0.00,,,0.00,0.0,meteohub,2013-03-24 01:02:00,
2013-03-23 20:07:00,27.7,26.4,29.92,NNW,345,15.0,22.0,95,0.00,,,0.00,0.0,meteohub,2013-03-24 01:07:00,
2013-03-23 20:12:00,27.7,26.4,29.92,NNW,340,19.0,22.0,95,0.00,,,0.00,0.0,meteohub,2013-03-24 01:12:00,
2013-03-23 20:17:00,27.7,26.4,29.93,NW,326,21.0,21.0,95,0.00,,,0.00,0.0,meteohub,2013-03-24 01:17:00,
2013-03-23 20:22:00,27.1,25.9,29.94,NNW,344,19.0,26.0,95,0.00,,,0.00,0.0,meteohub,2013-03-24 01:22:00,
2013-03-23 20:27:00,27.1,25.9,29.94,NNW,341,16.0,26.0,95,0.00,,,0.00,0.0,meteohub,2013-03-24 01:27:00,
2013-03-23 20:32:00,27.1,25.9,29.95,NNW,331,15.0,26.0,95,0.00,,,0.00,0.0,meteohub,2013-03-24 01:32:00,
2013-03-23 20:37:00,26.4,25.0,29.95,NNW,338,19.0,24.0,94,0.00,,,0.00,0.0,meteohub,2013-03-24 01:37:00,
2013-03-23 20:42:00,25.9,24.4,29.95,NNW,331,24.0,26.0,94,0.00,,,0.00,0.0,meteohub,2013-03-24 01:42:00,
2013-03-23 20:47:00,25.7,24.3,29.96,NNW,331,23.0,28.0,94,0.00,,,0.00,0.0,meteohub,2013-03-24 01:47:00,
2013-03-23 20:52:00,25.5,24.1,29.97,NW,323,21.0,32.0,94,0.00,,,0.00,0.0,meteohub,2013-03-24 01:52:00,
2013-03-23 20:57:00,25.7,24.3,29.99,NW,324,21.0,32.0,94,0.00,,,0.00,0.0,meteohub,2013-03-24 01:57:00,
2013-03-23 21:02:00,25.5,24.1,29.99,NW,316,19.0,32.0,94,0.00,,,0.00,0.0,meteohub,2013-03-24 02:02:00,
2013-03-23 21:08:00,25.3,23.9,30.00,NW,324,20.0,28.0,94,0.00,,,0.00,0.0,meteohub,2013-03-24 02:08:00,
2013-03-23 21:13:00,25.3,23.9,30.00,NW,315,24.0,31.0,94,0.00,,,0.00,0.0,meteohub,2013-03-24 02:13:00,
2013-03-23 21:18:00,25.2,23.7,30.00,NW,313,22.0,31.0,94,0.00,,,0.00,0.0,meteohub,2013-03-24 02:18:00,
2013-03-23 21:23:00,25.0,23.5,30.01,NW,324,19.0,29.0,94,0.00,,,0.00,0.0,meteohub,2013-03-24 02:23:00,
2013-03-23 21:28:00,25.0,23.5,30.02,NNW,328,19.0,29.0,94,0.00,,,0.00,0.0,meteohub,2013-03-24 02:28:00,
2013-03-23 21:33:00,24.6,23.2,30.02,NW,323,24.0,29.0,94,0.00,,,0.00,0.0,meteohub,2013-03-24 02:33:00,
2013-03-23 21:38:00,24.4,23.0,30.03,NW,312,20.0,28.0,94,0.00,,,0.00,0.0,meteohub,2013-03-24 02:38:00,
2013-03-23 21:43:00,24.4,23.0,30.03,NW,321,23.0,28.0,94,0.00,,,0.00,0.0,meteohub,2013-03-24 02:43:00,
2013-03-23 21:48:00,24.4,22.6,30.04,NNW,330,23.0,30.0,93,0.00,,,0.00,0.0,meteohub,2013-03-24 02:48:00,
2013-03-23 21:53:00,24.4,23.0,30.04,NW,312,22.0,30.0,94,0.00,,,0.00,0.0,meteohub,2013-03-24 02:53:00,
2013-03-23 21:58:00,24.3,22.5,30.05,NW,323,22.0,30.0,93,0.00,,,0.00,0.0,meteohub,2013-03-24 02:58:00,
2013-03-23 22:03:00,24.3,22.5,30.05,NNW,327,25.0,28.0,93,0.00,,,0.00,0.0,meteohub,2013-03-24 03:03:00,
2013-03-23 22:08:00,24.3,22.5,30.05,NW,325,17.0,28.0,93,0.00,,,0.00,0.0,meteohub,2013-03-24 03:08:00,
2013-03-23 22:13:00,24.3,22.5,30.06,NNW,329,20.0,28.0,93,0.00,,,0.00,0.0,meteohub,2013-03-24 03:13:00,
2013-03-23 22:18:00,24.3,22.5,30.06,NNW,327,27.0,27.0,93,0.00,,,0.00,0.0,meteohub,2013-03-24 03:18:00,
2013-03-23 22:23:00,24.1,22.3,30.06,NNW,331,22.0,32.0,93,0.00,,,0.00,0.0,meteohub,2013-03-24 03:23:00,
2013-03-23 22:28:00,24.3,22.5,30.07,NW,317,22.0,32.0,93,0.00,,,0.00,0.0,meteohub,2013-03-24 03:28:00,
2013-03-23 22:34:00,24.1,22.3,30.07,NNW,330,24.0,30.0,93,0.00,,,0.00,0.0,meteohub,2013-03-24 03:34:00,
2013-03-23 22:39:00,24.1,22.3,30.08,NW,326,20.0,30.0,93,0.00,,,0.00,0.0,meteohub,2013-03-24 03:39:00,
2013-03-23 22:44:00,24.1,22.3,30.08,NNW,327,20.0,30.0,93,0.00,,,0.00,0.0,meteohub,2013-03-24 03:44:00,
2013-03-23 22:49:00,23.7,21.9,30.08,NW,321,21.0,29.0,93,0.00,,,0.00,0.0,meteohub,2013-03-24 03:49:00,
2013-03-23 22:54:00,23.7,21.9,30.08,NW,324,17.0,28.0,93,0.00,,,0.00,0.0,meteohub,2013-03-24 03:54:00,
2013-03-23 22:59:00,23.5,21.7,30.08,NW,315,23.0,27.0,93,0.00,,,0.00,0.0,meteohub,2013-03-24 03:59:00,
2013-03-23 23:00:00,23.5,21.7,30.08,NW,325,19.0,27.0,93,0.00,,,0.00,0.0,meteohub,2013-03-24 04:00:00,
2013-03-23 23:05:00,23.4,21.6,30.09,NNW,331,18.0,29.0,93,0.00,,,0.00,0.0,meteohub,2013-03-24 04:05:00,
2013-03-23 23:10:00,23.2,21.4,30.09,NW,315,23.0,29.0,93,0.00,,,0.00,0.0,meteohub,2013-03-24 04:10:00,
2013-03-23 23:15:00,23.2,21.4,30.10,NW,317,19.0,29.0,93,0.00,,,0.00,0.0,meteohub,2013-03-24 04:15:00,
2013-03-23 23:20:00,23.2,21.4,30.10,NW,306,17.0,23.0,93,0.00,,,0.00,0.0,meteohub,2013-03-24 04:20:00,
2013-03-23 23:25:00,23.2,21.4,30.10,NW,312,15.0,23.0,93,0.00,,,0.00,0.0,meteohub,2013-03-24 04:25:00,
2013-03-23 23:30:00,23.2,21.4,30.10,NW,321,18.0,23.0,93,0.00,,,0.00,0.0,meteohub,2013-03-24 04:30:00,
2013-03-23 23:36:00,23.4,21.6,30.10,NW,319,15.0,23.0,93,0.00,,,0.00,0.0,meteohub,2013-03-24 04:36:00,
2013-03-23 23:41:00,23.2,21.4,30.10,NW,315,20.0,23.0,93,0.00,,,0.00,0.0,meteohub,2013-03-24 04:41:00,
2013-03-23 23:46:00,23.0,21.0,30.11,NW,323,18.0,23.0,92,0.00,,,0.00,0.0,meteohub,2013-03-24 04:46:00,
2013-03-23 23:51:00,22.8,20.8,30.11,NW,323,16.0,23.0,92,0.00,,,0.00,0.0,meteohub,2013-03-24 04:51:00,
2013-03-23 23:56:00,22.6,20.7,30.11,NW,315,18.0,23.0,92,0.00,,,0.00,0.0,meteohub,2013-03-24 04:56:00,